This is the latest recevied weather packets stored in our database for station/object AK4FD. If no packets are shown the sender has not sent any weather packets the latest 1 day(s).
| Time | Temp. | Humidity | Pressure | Rain* | Wind** | Luminosity | Snow |
|---|---|---|---|---|---|---|---|
| 1778046633 | 17.78° C | 68% | 1014.8 hPa | 0 mm | - | 0 W/m² | - |
| 1778046026 | 17.78° C | 68% | 1014.8 hPa | 0 mm | - | 0 W/m² | - |
| 1778045121 | 18.33° C | 67% | 1014.7 hPa | 0 mm | - | 0 W/m² | - |
| 1778044818 | 18.33° C | 67% | 1014.7 hPa | 0 mm | - | 0 W/m² | - |
| 1778043607 | 18.33° C | 65% | 1014.7 hPa | 0 mm | - | 0 W/m² | - |
| 1778043303 | 18.33° C | 65% | 1014.9 hPa | 0 mm | - | 0 W/m² | - |
| 1778042698 | 18.33° C | 64% | 1014.6 hPa | 0 mm | - | 0 W/m² | - |
| 1778042394 | 18.33° C | 63% | 1014.7 hPa | 0 mm | - | 0 W/m² | - |
| 1778042091 | 18.33° C | 62% | 1014.5 hPa | 0 mm | - | 0 W/m² | - |
| 1778041488 | 18.33° C | 61% | 1014.8 hPa | 0 mm | - | 0 W/m² | - |
| 1778041186 | 18.33° C | 60% | 1014.7 hPa | 0 mm | - | 0 W/m² | - |
| 1778040884 | 18.33° C | 60% | 1014.8 hPa | 0 mm | - | 0 W/m² | - |
| 1778040581 | 18.33° C | 59% | 1014.7 hPa | 0 mm | - | 0 W/m² | - |
| 1778040278 | 17.78° C | 59% | 1014.5 hPa | 0 mm | - | 0 W/m² | - |
| 1778039974 | 17.78° C | 58% | 1014.6 hPa | 0 mm | - | 0 W/m² | - |
| 1778039672 | 17.78° C | 59% | 1014.5 hPa | 0 mm | - | 0 W/m² | - |
| 1778039368 | 17.22° C | 61% | 1014.6 hPa | 0 mm | - | 0 W/m² | - |
| 1778038762 | 17.22° C | 63% | 1014.4 hPa | 0 mm | - | 0 W/m² | - |
| 1778038460 | 17.22° C | 62% | 1014.5 hPa | 0 mm | - | 0 W/m² | - |
| 1778037854 | 17.78° C | 61% | 1014.5 hPa | 0 mm | - | 0 W/m² | - |
| 1778037550 | 17.78° C | 61% | 1014.3 hPa | 0 mm | - | 0 W/m² | - |
| 1778036945 | 18.33° C | 59% | 1014.5 hPa | 0 mm | - | 0 W/m² | - |
| 1778036643 | 18.33° C | 56% | 1014.3 hPa | 0 mm | - | 0 W/m² | - |
| 1778036036 | 18.33° C | 56% | 1014.4 hPa | 0 mm | - | 0 W/m² | - |
| 1778035733 | 17.78° C | 57% | 1014.6 hPa | 0 mm | - | 0 W/m² | - |
* Rain latest hour (hover to see other rain measurements)
** Current wind speed in m/s (hover to see current wind gust speed)